Flag for Denmark Weather past 2 weeks in Vejle, Denmark

Now
45 °F

Passing clouds.


Feels Like: 37 °F
Forecast: 41 / 64 °F
Wind: 18 mph from Northwest

Location: Billund Lufthavn

Current Time: Apr 21, 2015 at 11:14:01 PM

Latest Report: Apr 21, 2015 at 10:20 PM


Visibility: N/A

Pressure: 30.30 "Hg

Humidity: 81%

Dew point: 39 °F

Location of VejleLocation

Historic Weather in Vejle — Graph

°F

Vejle temperature yesterday

Maximum temperature yesterday: 68 °F (at 2:50 PM)
Minimum temperature yesterday: 36 °F (at 5:50 AM)
Average temperature yesterday: 53 °F

Past Weeks' High & Low Weather Summary

 TemperatureHumidityPressure
High68 °F (Apr 11, 1:20 PM)100% (Apr 7, 1:50 AM)30.51 "Hg (Apr 7, 1:50 AM)
Low30 °F (Apr 18, 4:50 AM)23% (Apr 20, 4:50 PM)29.74 "Hg (Apr 15, 2:20 PM)
Average46 °F75%30.17 "Hg
* Reported Apr 6 9:20 PM — Apr 21 9:50 PM, Vejle, Weather by CustomWeather, © 2015

Note: Actual official high and low records may vary slightly from our data, if they occured in-between our weather recording intervals... More about our weather records

Advertising

Vejle weather history for previous 24 hours

 ConditionsComfort  
Time TempWeatherWind HumidityBarometerVisibility
9:50 PM
Tue, Apr 21
45 °FPassing clouds.18 mph81%30.30 "HgN/A
9:20 PM45 °FPartly sunny.18 mph81%30.30 "HgN/A
8:50 PM45 °FPartly sunny.18 mph81%30.30 "HgN/A
8:20 PM46 °FPartly sunny.17 mph76%30.30 "HgN/A
7:50 PM46 °FPassing clouds.20 mph71%30.30 "HgN/A
7:20 PM48 °FPassing clouds.21 mph66%30.30 "HgN/A
6:50 PM48 °FSunny.20 mph66%30.30 "Hg10 mi
6:20 PM50 °FSunny.18 mph67%30.30 "Hg10 mi
5:50 PM52 °FPassing clouds.18 mph62%30.30 "HgN/A
5:20 PM50 °FPassing clouds.17 mph67%30.33 "HgN/A
4:50 PM50 °FSunny.17 mph67%30.33 "Hg10 mi
4:20 PM50 °FSunny.22 mph67%30.33 "Hg10 mi
3:20 PM54 °FSunny.17 mph63%30.33 "Hg10 mi
2:50 PM54 °FSunny.16 mph67%30.33 "Hg10 mi
2:20 PM54 °FPassing clouds.15 mph63%30.33 "HgN/A
1:50 PM55 °FPassing clouds.15 mph63%30.33 "HgN/A
1:20 PM54 °FSunny.15 mph67%30.33 "Hg10 mi
12:50 PM52 °FPassing clouds.17 mph67%30.33 "HgN/A
12:20 PM52 °FPassing clouds.18 mph62%30.33 "HgN/A
11:50 AM52 °FPassing clouds.17 mph67%30.33 "HgN/A
11:20 AM52 °FPassing clouds.20 mph67%30.33 "HgN/A
10:50 AM52 °FSunny.16 mph67%30.33 "Hg10 mi
10:20 AM52 °FSunny.16 mph67%30.33 "Hg10 mi
9:50 AM50 °FSunny.15 mph67%30.33 "Hg10 mi
9:20 AM48 °FSunny.14 mph76%30.33 "Hg10 mi
8:50 AM46 °FSunny.12 mph76%30.33 "Hg10 mi
8:20 AM45 °FSunny.13 mph81%30.33 "Hg10 mi
7:50 AM43 °FPassing clouds.10 mph87%30.33 "HgN/A
7:20 AM43 °FSunny.13 mph87%30.33 "Hg10 mi
6:50 AM41 °FQuite cool.12 mph93%30.33 "HgN/A
6:20 AM41 °FQuite cool.9 mph87%30.33 "HgN/A
5:20 AM39 °FChilly.10 mph87%30.33 "HgN/A
4:50 AM41 °FQuite cool.8 mph81%30.33 "HgN/A
4:20 AM41 °FQuite cool.7 mph81%30.33 "HgN/A
3:50 AM41 °FQuite cool.8 mph81%30.33 "HgN/A
3:20 AM41 °FQuite cool.10 mph81%30.33 "HgN/A
2:50 AM41 °FQuite cool.9 mph81%30.33 "HgN/A
2:20 AM41 °FQuite cool.6 mph81%30.36 "HgN/A
1:50 AM41 °FQuite cool.6 mph70%30.36 "HgN/A
1:20 AM43 °FQuite cool.6 mph66%30.36 "HgN/A
12:50 AM43 °FQuite cool.7 mph61%30.36 "HgN/A
12:20 AM45 °FQuite cool.7 mph57%30.36 "HgN/A
11:50 PM
Mon, Apr 20
46 °FCool.7 mph53%30.36 "HgN/A
11:20 PM48 °FCool.5 mph46%30.36 "HgN/A
Weather by CustomWeather, © 2015

See weather overviewHow to use our weather pages